Regional Weather Roundup
Issued by NWS

Home | Current Version | Previous Version | Graphics & Text | Print | Product List | Glossary On
Versions: 1 2 3 4 5 6 7 8 9 10 11 12 13 14 15 16 17 18 19 20 21 22 23 24 25 26 27 28 29 30 31 32 33 34 35 36 37 38 39 40 41 42 43 44 45 46 47 48 49 50
000
ASUS43 KOAX 141302
RWRNE

WEATHER ROUNDUP FOR NEBRASKA
NATIONAL WEATHER SERVICE OMAHA NE
800 AM CDT MON JUL 14 2014

NOTES: SATELLITE DATA IS BEING USED TO AUGMENT CLOUD COVER ABOVE
       12000 FEET.
       "FAIR" INDICATES FEW OR NO CLOUDS BELOW 12,000 FEET WITH NO
       SIGNIFICANT WEATHER AND/OR OBSTRUCTIONS TO VISIBILITY.

  * THESE STATIONS DO NOT REPORT WEATHER SUCH AS RAIN...SNOW OR FOG.

NEZ001>004-019>022-054>056-141400-
NEBRASKA PANHANDLE

CITY           SKY/WX    TMP DP  RH WIND       PRES   REMARKS
SCOTTSBLUFF    SUNNY     61  57  87 W5        30.26R
ALLIANCE       SUNNY     60  55  83 N8        30.24R
CHADRON        SUNNY     59  54  83 NE5       30.26R
KIMBALL        SUNNY     60  57  88 N8        30.27R
SIDNEY         SUNNY     63  55  75 N12       30.25R
$$

NEZ057>060-069>072-079>082-141400-
SOUTHWEST NEBRASKA

CITY           SKY/WX    TMP DP  RH WIND       PRES   REMARKS
NORTH PLATTE   SUNNY     63  58  83 CALM      30.16R
IMPERIAL       SUNNY     64  60  87 N12       30.17R
LEXINGTON      PTSUNNY   64  62  93 N5        30.13R
MCCOOK         SUNNY     65  61  87 NE9       30.13R
OGALLALA       SUNNY     63  57  83 NE7       30.19R
$$

NEZ005>010-023>029-035>040-094-141400-
NORTH CENTRAL NEBRASKA

CITY           SKY/WX    TMP DP  RH WIND       PRES   REMARKS
VALENTINE      MOSUNNY   61  47  59 N12       30.20R
AINSWORTH      SUNNY     59  50  73 N9        30.19R
BROKEN BOW     MOSUNNY   64  61  90 CALM      30.13R
O`NEILL        SUNNY     62  51  68 N13       30.14R
ORD            PTSUNNY   63  60  90 N6        30.11R
THEDFORD       PTSUNNY   61  59  92 NW5       30.19R
$$

NEZ041-046>049-061>064-073>077-083>087-141400-
SOUTH CENTRAL NEBRASKA

CITY           SKY/WX    TMP DP  RH WIND       PRES   REMARKS
GRAND ISLAND   PTSUNNY   66  63  90 E5        30.09S
AURORA         CLOUDY    67  64  90 CALM      30.08F
HASTINGS       CLOUDY    66  61  84 NE7       30.09R
HEBRON         CLOUDY    69  63  80 NE7       30.07S
HOLDREGE       MOSUNNY   62  59  92 N3        30.11R
KEARNEY *      PTSUNNY   64  61  88 NE9       30.11S
YORK           LGT RAIN  66  63  88 CALM      30.08S
$$

NEZ011>018-030>034-042>045-141400-
NORTHEAST NEBRASKA

CITY           SKY/WX    TMP DP  RH WIND       PRES   REMARKS
NORFOLK        MOSUNNY   64  57  78 NW7       30.08R
ALBION         CLOUDY    64  57  79 NW6       30.10R
BLAIR          PTSUNNY   63  54  72 W5        30.05R
FREMONT        PTSUNNY   65  61  88 W5        30.06S
TEKAMAH        PTSUNNY   69  58  67 N9        30.03S
WAYNE          SUNNY     62  55  79 NW7       30.08R
$$

NEZ050>053-065>068-078-088>093-141400-
SOUTHEAST NEBRASKA

CITY           SKY/WX    TMP DP  RH WIND       PRES   REMARKS
LINCOLN        CLOUDY    68  63  84 CALM      30.06F
OMAHA EPPLEY   PTSUNNY   67  56  67 NW7       30.04S
BEATRICE       CLOUDY    61  59  93 N10       30.08R
FALLS CITY     LGT RAIN  67  61  81 N7        30.03R
NEBRASKA CITY  CLOUDY    64  64 100 CALM      30.04F
PLATTSMOUTH    LGT RAIN  65  61  85 W3        30.05R
$$

NEZ044-045-051>053-067-141400-
OMAHA AREA

CITY           SKY/WX    TMP DP  RH WIND       PRES   REMARKS
OMAHA EPPLEY   PTSUNNY   67  56  67 NW7       30.04S
BLAIR          PTSUNNY   63  54  72 W5        30.05R
FREMONT        PTSUNNY   65  61  88 W5        30.06S
MILLARD        CLOUDY    64  61  88 NW7       30.05R
OFFUTT AFB     PTSUNNY   64  64 100 W5        30.03S
PLATTSMOUTH    LGT RAIN  65  61  85 W3        30.05R
WAHOO          CLOUDY    66  60  80 NW3       30.06R
$$


USA.gov is the U.S. government's official web portal to all federal, state and local government web resources and services.